User: anonymous   Login
Location: ???? ?????
(30.0052°N, 31.2891°E)
Time: 13:44:40
(UTC+00:00)
Language:

CZ-3 R/B - Orbit

View from above orbital plane
View from above orbital plane
View from above satellite
View from above satellite

Ground track
Ground track

The orbit data is extracted from the following two-line orbital elements,

1 29517U 06048B   22221.22406050  .00000538  00000-0  28521-3 0  9997
2 29517  28.3125  94.4857 4168503   9.3042 356.5247  6.88248550296699
Epoch (UTC): 09 August 2022 05:22:38
Eccentricity: 0.4168503
inclination: 28.3125°
perigee height: 430 km
apogee height: 10163 km
right ascension of ascending node: 94.4857°
argument of perigee: 9.3042°
revolutions per day: 6.88248550
mean anomaly at epoch: 356.5247°
orbit number at epoch: 29669

The dashed part of the orbit path shows where the satellite is in the earth's shadow,  

DLR